Wind_Speed
16 15 14 12 11 10 9 8 7 6 6 7 7 7 6 7 8 8 9 8 8 7 6 6 7 7 6 5 4 3 4 5 5 6 5 5 3 2 1 0 1 1 2 2 3 3 3 3 4 4 4 4 5 5 5 5 4 4 3 3 2 2 2 1 1 1 1 1 1 1 2 2 2 2 2 2 2 2 3 3 4 4 4 5 5 5
16 16 14 13 11 10 9 8 7 5 6 7 8 8 8 9 9 9 9 9 8 7 7 6 6 6 6 6 5 5 6 6 6 6 6 5 3 2 1 0 0 1 2 2 3 4 4 5 5 5 5 5 5 5 6 6 6 6 5 5 4 4 3 3 2 2 2 3 3 3 3 3 3 3 3 2 2 2 3 3 3 4 4 4 5 5
18 17 16 14 12 11 10 8 6 5 6 6 8 9 10 10 10 9 9 8 8 8 8 7 7 7 7 8 7 7 6 7 6 6 5 4 3 2 1 0 0 1 2 2 3 4 5 5 6 6 6 6 6 6 6 6 6 6 6 6 6 6 5 5 4 4 4 4 4 4 4 4 4 4 3 3 3 3 3 3 4 4 4 5 5 6
19 18 18 15 13 12 10 8 6 5 6 6 9 11 12 11 10 10 9 8 7 7 8 8 7 7 8 8 8 7 6 6 6 5 4 4 3 2 1 0 1 1 2 3 4 5 5 5 6 6 6 6 6 6 6 6 6 7 7 7 7 7 7 7 6 6 6 6 6 6 6 5 5 5 4 4 4 4 4 4 4 5 5 5 6 6
18 18 18 17 15 13 11 8 6 6 7 9 11 13 12 11 10 10 9 8 8 7 7 7 6 6 7 7 8 7 6 6 6 5 4 3 3 2 1 1 2 3 4 4 5 5 5 5 5 5 5 5 5 5 5 6 6 7 7 7 7 7 7 7 7 6 6 6 6 6 6 6 6 5 5 5 5 5 5 5 5 5 6 6 6 7
17 17 18 17 15 14 11 9 8 8 10 11 13 13 12 11 10 10 10 10 9 8 7 6 6 5 5 6 7 7 6 6 6 6 5 4 3 3 2 2 3 4 5 5 5 5 5 5 5 5 5 5 5 5 5 6 7 7 7 7 7 7 7 6 6 6 5 5 6 6 6 6 6 6 6 6 6 6 6 6 6 6 6 7 7 7
17 17 17 16 14 13 11 10 9 10 12 13 14 13 12 11 10 10 10 10 9 9 7 6 6 5 5 5 6 7 6 6 6 5 5 4 4 4 4 4 5 5 6 5 5 5 5 5 5 5 5 4 4 5 6 7 8 8 8 7 7 6 6 5 5 5 5 5 5 5 5 5 5 5 5 6 6 6 6 6 6 7 7 7 7 7
18 18 17 16 14 13 12 11 11 13 14 14 14 14 13 11 11 10 10 10 9 9 8 7 6 5 5 5 5 6 6 6 5 5 5 5 6 6 6 7 7 7 6 5 5 4 4 4 4 4 4 4 5 6 7 8 8 7 7 6 6 6 5 5 4 4 4 4 4 5 5 5 5 5 5 5 6 6 6 6 6 7 7 7 7 7
20 19 18 16 14 13 13 12 13 15 15 15 14 14 14 13 12 12 11 10 9 9 8 7 7 6 6 5 5 5 5 5 5 5 5 6 7 7 8 9 9 8 6 5 4 4 5 5 4 4 4 4 5 6 7 7 6 5 4 3 3 4 4 4 4 4 4 5 5 5 5 5 5 5 5 5 6 6 6 6 6 6 6 7 6 6
21 20 18 16 15 14 13 13 15 16 16 15 14 14 14 14 14 14 13 12 11 9 8 8 7 7 7 6 6 5 5 5 5 5 6 6 7 8 9 9 9 8 6 5 5 6 6 5 5 4 3 4 5 6 6 5 3 2 1 1 2 2 2 2 3 3 4 4 5 5 5 6 5 6 6 6 6 6 6 6 6 6 6 6 6 5
19 19 17 15 15 15 14 15 16 17 16 15 14 14 14 14 14 14 14 13 12 11 9 9 8 8 7 7 6 6 5 6 6 6 7 7 8 9 9 9 9 8 7 6 7 8 8 7 5 4 4 4 4 4 4 3 1 1 1 1 1 2 2 2 2 3 3 3 4 4 5 5 5 5 5 5 5 6 6 5 5 5 5 5 5 5
18 17 15 15 15 16 15 16 18 18 16 15 14 13 13 14 14 13 14 14 13 12 11 10 9 8 8 7 7 7 7 7 7 7 8 8 9 9 9 9 8 8 8 8 8 8 8 7 6 5 5 4 4 3 3 2 2 2 2 2 2 2 2 2 3 3 3 3 3 3 3 3 4 4 4 5 5 5 5 5 5 5 5 5 4 4
17 16 15 15 15 16 16 17 17 17 16 15 14 13 13 14 14 14 13 13 13 12 12 11 10 9 8 8 7 7 8 8 8 8 8 9 9 9 8 8 8 7 7 7 7 6 6 5 5 4 4 4 3 2 2 2 3 3 4 4 4 3 3 3 3 3 3 3 3 3 3 3 3 3 4 4 4 4 4 4 4 4 4 4 4 4
17 16 15 15 15 16 16 17 17 16 15 14 14 14 15 15 15 14 13 13 13 13 12 11 10 10 9 9 8 9 9 9 9 9 8 8 8 8 8 7 7 6 5 5 4 4 4 3 3 3 3 3 2 1 2 3 3 4 4 5 5 5 4 4 4 4 4 3 3 3 3 3 3 3 3 3 4 4 4 4 4 4 4 4 4 4
18 17 15 14 15 16 16 17 17 16 15 13 14 15 15 16 15 14 13 13 13 13 12 11 10 10 9 9 9 10 9 9 9 8 7 7 7 8 7 6 5 4 3 3 2 2 2 2 2 2 3 2 2 1 2 4 4 4 4 5 5 5 5 5 4 4 4 4 4 4 3 3 3 3 3 4 4 4 4 4 4 4 4 4 4 4
20 18 16 16 16 16 16 17 17 15 15 14 14 14 14 15 15 14 13 14 14 13 11 9 8 7 8 9 9 9 9 8 8 7 6 5 6 7 6 5 3 3 2 2 2 2 2 2 2 3 3 2 1 2 3 4 5 4 4 4 5 6 6 5 5 4 4 4 4 4 4 4 4 4 4 4 4 4 4 4 5 5 5 5 5 5
19 18 17 18 17 17 17 18 17 15 15 15 14 14 14 14 14 14 13 14 13 12 10 8 5 3 4 6 7 8 7 7 6 6 4 3 5 6 4 3 2 2 2 2 2 2 2 2 3 3 3 2 2 2 3 4 4 4 4 4 5 6 6 5 4 4 3 3 4 4 4 4 4 4 4 4 5 5 5 5 5 5 5 5 5 5
18 17 18 18 17 17 18 18 17 16 16 16 15 14 14 14 14 13 13 13 12 11 9 8 5 3 3 3 5 6 6 5 5 5 4 3 3 3 3 2 2 2 2 2 2 2 3 3 4 4 4 3 2 2 3 4 4 3 4 5 6 5 4 3 3 3 3 3 3 3 4 4 5 5 5 5 5 5 6 6 6 6 6 6 6 6
18 18 18 17 18 18 19 18 17 17 17 16 15 15 14 13 12 12 12 11 11 10 9 7 6 5 4 3 4 5 5 5 5 5 5 2 2 2 1 1 1 1 2 2 2 2 3 4 4 4 4 3 2 1 2 3 3 3 4 5 5 4 2 2 2 2 3 3 3 3 3 4 4 5 5 5 5 6 6 6 6 6 6 6 6 6
18 17 17 17 18 18 18 18 17 17 16 15 14 14 13 12 11 11 11 10 10 9 9 8 7 7 6 5 4 4 5 5 6 6 5 2 2 2 0 1 1 2 2 1 2 3 3 4 5 5 4 2 0 1 2 2 3 4 4 5 4 2 1 0 1 2 2 2 2 3 3 3 4 4 5 5 5 6 6 6 6 7 7 7 7 7
16 16 16 15 16 17 17 17 16 14 13 13 13 13 12 12 11 10 10 9 9 9 9 8 7 7 7 5 4 4 6 6 6 6 5 3 2 3 1 1 2 2 2 2 2 3 4 4 5 4 3 1 1 1 1 2 2 3 3 3 3 2 1 1 1 1 2 2 2 2 2 2 3 3 3 4 4 5 5 6 6 7 7 7 7 7
13 14 14 13 13 14 14 14 14 13 12 11 11 11 11 11 10 10 9 9 8 8 8 7 6 6 6 6 6 6 7 6 6 6 4 3 3 3 2 1 2 3 3 3 4 4 4 4 4 3 2 2 2 1 0 1 2 3 4 4 4 3 3 2 2 2 2 2 2 2 2 2 2 3 3 3 4 4 5 5 6 6 6 7 7 7
10 11 12 11 11 11 11 12 12 12 11 10 9 9 8 8 8 8 8 8 8 7 7 7 7 7 7 7 6 6 6 6 6 5 4 3 3 3 3 2 3 3 4 5 5 5 4 4 3 2 2 3 4 3 1 2 3 4 4 4 4 4 4 3 3 3 3 3 3 3 3 4 4 4 4 4 4 4 5 5 5 6 6 6 7 7
9 10 10 10 10 10 10 11 12 12 11 10 9 8 7 7 6 6 6 6 6 7 7 7 7 7 6 6 5 5 5 5 6 6 5 4 3 3 3 3 4 4 5 6 6 5 3 3 2 2 4 5 5 4 2 2 2 2 3 3 3 3 3 3 3 3 3 3 3 3 4 4 4 4 4 5 5 5 5 5 6 6 6 6 7 7
8 9 9 9 9 9 9 10 11 11 11 10 10 9 8 7 7 6 6 6 6 7 7 7 6 6 5 5 4 4 4 5 6 6 5 4 3 3 3 4 4 5 6 6 5 4 2 2 3 4 6 7 6 5 3 1 0 0 1 1 2 3 3 3 3 3 3 3 3 3 3 3 4 4 4 5 5 5 6 6 6 7 7 7 7 7
8 8 8 8 8 8 8 9 9 9 9 9 9 8 8 7 7 6 6 7 7 6 6 6 5 5 5 4 4 3 4 5 5 5 5 4 3 3 4 4 5 5 6 6 4 2 2 4 5 6 7 8 7 5 3 1 1 2 2 2 1 1 2 2 3 3 3 3 3 3 3 3 3 4 4 4 5 5 6 6 7 7 7 8 8 8
6 6 6 6 7 7 7 7 7 7 7 7 7 7 7 6 6 6 6 6 6 6 6 5 5 5 4 4 3 3 4 4 4 5 5 5 4 3 4 4 5 5 6 5 3 1 4 6 7 8 8 7 6 4 2 3 4 5 4 4 2 1 1 1 2 2 2 2 2 3 3 3 4 4 4 4 5 5 5 6 6 7 7 8 9 10
6 6 6 6 6 6 6 6 6 5 5 5 5 5 6 6 5 5 6 6 6 6 6 6 5 4 4 3 3 3 4 4 5 5 5 5 4 3 4 4 5 5 6 4 1 2 5 7 8 8 8 7 5 3 3 5 6 7 6 5 3 2 1 0 1 1 2 2 2 3 3 3 4 4 4 4 4 5 5 5 6 6 7 8 9 11
9 9 9 9 8 8 8 8 7 5 4 3 3 4 5 5 5 5 5 5 6 6 7 7 6 5 4 4 4 4 5 5 6 6 6 5 4 4 4 5 5 5 5 3 1 3 5 7 8 8 7 7 4 3 4 7 7 7 6 5 4 4 3 2 2 2 2 2 3 3 3 4 4 4 4 5 5 5 5 5 5 6 7 8 9 10
10 10 10 10 10 10 9 9 8 7 6 5 5 5 5 6 5 5 6 6 6 6 7 7 7 6 5 4 4 4 6 7 7 7 7 6 5 4 5 5 5 4 4 3 1 2 4 6 7 8 7 7 5 4 6 8 8 7 6 5 5 6 6 5 4 4 4 4 5 5 5 4 4 4 4 4 5 5 5 5 5 6 7 8 8 9
9 9 10 10 10 10 9 9 8 8 7 7 7 7 7 7 7 7 7 7 7 7 7 8 8 8 7 4 2 2 4 6 7 7 7 6 5 4 5 4 4 4 3 3 2 1 2 4 6 7 7 7 6 7 8 8 7 7 6 6 6 6 7 7 7 7 7 7 7 7 7 6 5 5 4 4 4 4 5 5 5 6 7 8 8 9
8 8 9 9 9 9 9 9 8 8 8 8 8 7 7 7 7 7 7 8 8 8 8 9 9 9 9 8 5 4 3 5 7 7 6 6 5 5 5 4 4 4 3 3 2 1 1 2 4 6 7 8 8 9 8 7 7 7 7 7 7 7 7 7 8 8 9 9 9 9 8 7 7 6 5 5 4 4 4 4 5 5 7 8 8 9
7 7 7 8 8 8 8 8 7 7 7 7 6 6 6 6 6 6 6 7 7 8 9 9 10 10 11 11 10 7 4 5 6 7 6 5 5 5 5 5 4 4 4 3 3 3 3 3 4 5 7 9 10 8 6 5 6 7 7 7 7 7 7 8 8 8 8 8 8 8 8 7 7 7 6 6 5 4 4 4 4 5 6 7 8 9
7 7 7 7 7 7 6 6 6 6 6 6 6 6 5 5 5 5 5 5 6 7 8 9 10 11 11 12 12 10 8 7 7 7 7 6 5 5 6 5 5 5 4 4 4 4 4 4 5 6 8 11 10 7 3 3 5 5 6 6 6 7 7 7 7 7 7 7 6 6 6 6 6 7 7 7 6 5 4 4 4 5 5 6 7 8
7 7 7 7 7 7 6 6 6 6 6 6 6 6 6 6 5 5 5 5 6 7 7 8 9 10 11 11 12 11 9 9 9 9 8 7 7 6 6 6 6 5 5 5 4 4 4 5 6 7 8 10 9 6 2 2 3 4 4 5 5 5 5 5 5 5 5 4 4 4 5 5 5 6 6 6 6 6 5 4 5 5 5 5 6 7
8 8 8 8 8 8 7 7 7 7 7 7 7 7 7 6 6 5 6 6 6 6 6 7 8 9 10 10 10 10 8 8 9 9 9 8 8 8 7 6 7 6 5 5 5 5 4 5 7 9 9 8 6 4 2 2 3 3 3 4 4 3 3 4 4 4 3 3 3 3 3 4 4 5 5 6 6 7 7 7 7 7 7 6 6 6
8 9 9 9 9 9 8 8 8 8 8 8 8 7 7 7 6 6 6 6 6 6 6 6 7 8 9 9 9 9 8 8 9 9 9 9 9 9 8 8 8 8 7 7 7 7 6 6 7 9 9 7 5 3 4 5 5 3 2 2 2 2 1 2 3 3 3 3 2 2 3 4 4 5 5 6 7 8 8 9 9 9 10 9 9 9
9 9 9 9 9 9 9 9 9 9 8 7 7 7 7 7 6 6 6 6 6 6 5 5 6 7 8 8 9 9 9 10 10 10 11 11 12 12 11 11 11 11 11 10 9 9 8 7 6 5 5 6 7 8 10 11 9 5 1 1 2 1 0 1 2 3 2 2 2 2 3 4 4 5 5 6 7 7 8 9 9 10 11 11 12 12
9 9 9 9 9 9 9 9 8 8 7 7 7 7 7 7 7 7 7 7 6 6 6 6 6 6 7 7 8 8 9 10 11 12 12 13 14 14 14 13 13 13 13 12 11 11 10 8 7 5 4 5 7 10 12 11 10 7 3 0 2 2 1 1 1 2 2 2 2 3 3 4 4 4 4 5 5 6 7 7 7 8 8 9 10 11
9 9 8 8 8 8 8 8 7 7 7 7 7 7 7 7 7 7 7 7 7 7 7 7 6 7 7 7 7 8 9 9 10 12 13 13 14 15 15 15 14 14 14 13 13 12 11 11 11 10 9 7 8 11 13 12 9 8 6 5 4 2 1 1 1 1 2 3 4 4 4 4 4 4 4 5 5 6 6 6 6 6 6 7 7 8
9 9 8 7 7 7 7 7 7 7 7 7 7 7 7 7 7 7 7 8 8 8 8 8 8 8 8 8 9 9 9 10 10 11 12 13 13 14 15 15 14 14 13 13 13 13 12 12 12 12 12 11 12 13 14 12 10 8 7 8 8 6 2 0 0 1 3 4 4 5 5 5 5 5 5 5 5 6 7 7 7 7 7 7 7 8
10 9 8 7 7 7 8 8 8 8 8 8 8 8 8 7 7 8 8 8 8 8 9 9 9 9 10 10 11 11 11 11 11 12 12 12 13 13 13 13 13 13 13 12 12 13 12 12 12 12 12 11 11 12 13 13 10 8 7 8 9 8 4 1 0 2 4 4 4 5 5 5 6 6 6 6 7 7 7 8 8 8 8 8 8 8
10 9 8 8 8 9 9 9 9 9 9 9 8 8 8 8 8 8 8 8 9 9 9 10 10 11 12 12 13 12 12 11 12 12 12 12 12 12 12 12 12 12 12 12 12 12 12 12 12 12 12 11 11 11 12 13 12 10 9 8 9 9 8 4 3 3 4 4 4 4 5 6 6 7 7 8 8 8 8 9 9 9 9 9 9 9
9 9 9 9 10 10 10 10 10 10 9 9 9 9 9 9 9 9 9 9 9 10 10 10 11 12 13 14 14 14 12 10 10 10 10 10 10 11 11 11 11 11 12 12 12 12 12 12 12 12 11 11 11 11 12 13 13 12 10 8 8 9 9 8 7 6 5 4 4 4 5 6 7 9 9 10 10 10 10 10 10 10 10 10 10 10
8 8 8 9 10 10 10 10 10 10 10 10 10 10 10 10 10 10 10 10 10 11 11 11 11 11 12 13 13 13 11 9 8 7 7 8 9 9 10 10 10 11 12 12 12 12 11 11 11 11 10 9 10 12 13 13 14 13 12 10 9 10 11 11 10 9 9 7 6 5 5 7 9 10 11 12 12 12 12 12 12 12 12 11 11 11
6 6 7 7 8 9 10 10 11 11 11 12 12 11 11 11 11 12 12 12 12 12 12 12 12 12 12 12 11 11 10 9 7 5 5 6 7 8 9 9 10 10 10 11 11 11 11 11 10 10 9 9 11 12 13 14 14 14 13 12 11 12 13 12 11 10 10 9 8 7 7 8 10 12 13 14 14 14 14 14 14 13 13 12 12 12
5 5 5 6 7 8 9 10 11 12 12 13 13 13 13 13 13 13 14 14 14 13 13 14 14 14 14 14 12 12 11 11 9 7 5 5 6 7 8 8 9 9 10 9 10 10 10 10 10 10 10 10 12 13 14 14 14 14 14 14 14 14 15 14 12 9 9 9 9 9 8 9 11 13 14 15 16 16 16 15 14 14 13 13 13 13
5 5 5 5 6 6 7 8 9 11 12 12 13 12 12 12 13 13 13 14 14 14 14 14 15 15 16 16 15 14 13 13 12 10 7 6 6 6 7 8 8 9 9 9 9 9 10 10 10 11 12 13 13 14 14 15 16 16 15 15 15 15 16 14 11 9 8 9 9 9 9 10 12 13 14 16 17 18 17 16 15 14 13 13 13 13
7 6 6 6 6 6 7 7 8 9 10 10 11 11 10 11 11 12 12 12 13 13 14 14 15 15 16 16 16 15 14 13 12 11 9 7 6 6 7 7 8 8 8 9 9 9 10 11 12 13 14 15 16 16 16 17 17 17 16 16 16 16 16 14 11 8 8 8 8 8 9 10 11 12 14 16 18 18 18 17 16 14 13 13 13 13
8 8 8 8 8 8 7 7 7 8 8 9 9 9 9 9 10 11 11 12 12 13 13 14 14 15 16 16 16 15 15 14 13 12 11 9 7 6 6 7 7 8 8 9 9 10 11 12 14 15 16 16 17 18 18 18 18 17 17 17 16 16 15 14 11 9 8 8 8 9 9 9 10 11 13 15 17 18 18 17 16 15 13 13 13 14
10 10 10 10 10 10 9 9 8 8 8 8 8 9 9 9 9 10 11 11 12 13 13 14 14 15 16 16 16 16 15 15 15 14 12 10 8 7 6 7 7 8 8 8 8 8 8 9 10 12 15 16 16 16 17 18 17 17 17 17 15 14 14 13 11 9 9 9 9 9 9 10 10 11 12 14 15 17 17 18 17 16 14 14 14 15
Wind_Direction
187 188 192 197 198 196 191 191 193 198 213 223 224 219 204 188 181 181 181 181 181 182 184 192 199 205 203 194 179 164 150 135 127 123 120 120 125 133 131 99 360 340 333 329 325 321 317 314 308 301 292 282 276 270 266 261 254 249 250 256 263 281 306 317 319 311 298 279 250 229 219 225 238 252 250 251 263 286 306 316 318 317 321 322 326 330
182 184 186 193 197 194 186 190 197 207 221 222 214 200 183 176 174 174 175 174 168 160 158 164 171 173 167 153 140 133 134 132 131 129 129 133 139 143 141 126 359 343 340 334 330 328 324 320 317 313 308 301 293 285 277 269 261 254 250 246 246 248 252 255 259 260 253 252 251 242 230 234 244 254 255 257 271 291 302 307 312 316 319 320 322 324
174 177 182 189 193 190 185 190 202 217 227 217 197 182 174 173 173 172 172 169 159 148 144 146 149 149 145 138 131 128 132 134 135 136 140 144 147 145 143 132 8 349 346 334 332 331 327 325 322 321 318 313 308 302 294 284 274 264 256 249 245 244 244 244 247 248 247 247 248 245 240 243 247 252 259 267 279 292 300 303 310 316 318 321 322 321
173 174 180 184 188 189 188 193 204 217 215 196 177 170 170 172 173 173 173 169 160 149 144 143 143 144 143 140 136 134 137 142 145 148 152 153 153 155 165 217 295 313 321 323 324 323 324 322 321 319 318 315 312 308 303 296 287 277 267 259 252 248 244 243 244 246 247 250 251 251 251 252 254 258 266 272 279 285 293 299 306 312 316 318 319 320
174 176 180 181 183 186 191 198 206 206 195 176 167 166 168 172 174 173 174 175 170 162 155 151 150 150 151 150 148 146 147 159 166 170 173 176 183 197 220 262 288 299 306 314 318 319 320 318 317 316 314 312 309 305 300 293 287 282 276 269 262 255 251 247 247 249 253 256 259 261 264 264 265 267 269 271 273 277 283 290 297 303 308 310 312 314
175 177 179 180 181 184 189 196 199 192 181 171 166 166 169 171 173 173 175 177 176 172 167 163 162 162 163 164 163 160 159 173 182 187 193 200 210 223 245 272 289 298 305 311 314 316 316 316 316 316 315 311 306 299 291 284 280 278 276 273 268 263 258 254 252 253 258 261 265 268 271 273 273 273 273 273 273 275 280 286 292 298 303 306 308 309
172 176 177 178 181 185 187 189 187 181 173 169 167 167 168 170 171 173 175 176 177 175 174 173 173 176 178 179 177 175 175 185 195 204 215 227 242 256 266 280 290 297 303 308 311 312 312 313 315 318 317 311 302 293 286 282 281 281 278 274 270 266 262 258 255 255 260 264 267 269 271 273 275 277 277 278 278 280 283 287 291 297 302 304 306 307
169 174 177 179 181 183 183 181 179 175 171 168 167 166 166 168 171 172 174 175 177 178 179 181 183 187 190 193 192 191 194 202 214 230 247 262 273 279 284 289 292 295 299 305 306 305 304 307 313 317 315 307 295 288 287 288 289 288 284 277 272 267 262 258 254 253 257 260 262 264 265 267 271 274 277 280 282 284 286 288 292 298 302 305 307 308
168 171 176 180 180 177 176 175 174 172 171 169 168 166 165 166 168 171 173 175 178 182 186 188 190 194 198 201 203 205 211 220 234 251 266 275 281 286 290 294 296 296 297 297 294 290 292 299 308 313 310 299 292 290 291 295 298 299 298 291 284 275 267 260 254 251 252 252 253 254 256 259 263 268 273 277 280 283 286 289 294 300 302 306 307 307
171 171 173 178 179 175 170 172 172 171 170 171 171 171 169 168 168 169 172 174 179 184 190 193 194 197 201 205 208 211 219 231 245 258 268 275 280 286 292 296 298 296 289 279 271 273 280 289 298 303 297 289 288 291 295 301 309 325 349 346 333 315 301 286 272 260 256 255 255 254 255 256 259 264 268 275 279 283 287 291 297 302 304 305 306 305
170 171 170 172 175 175 170 171 171 171 171 173 175 177 177 175 174 173 174 175 179 183 187 191 194 196 198 204 209 215 224 234 247 259 268 273 279 285 291 296 296 291 279 270 267 271 276 281 284 280 271 267 275 287 297 309 337 29 39 21 355 344 340 330 315 299 287 281 276 271 267 265 265 268 272 279 284 289 292 294 298 300 303 303 304 304
165 168 168 168 169 170 170 171 170 170 173 177 180 182 185 185 185 185 183 181 180 181 183 186 191 196 199 203 211 221 231 240 249 258 265 271 276 282 288 292 292 286 276 270 270 272 276 278 274 265 256 252 258 275 296 324 360 16 10 353 333 323 323 324 323 318 313 311 304 296 290 286 284 283 284 287 290 292 293 294 296 297 300 302 301 300
165 166 166 167 167 169 170 171 172 175 178 182 184 185 186 190 192 192 190 188 185 183 185 187 191 198 205 211 219 229 239 247 253 259 264 270 275 281 287 291 289 282 273 267 267 271 275 278 273 264 255 250 251 263 302 342 358 360 350 338 326 314 306 307 306 304 303 304 303 302 302 304 302 297 293 292 292 292 293 294 295 296 298 301 299 296
163 164 164 165 168 171 172 173 174 176 180 185 188 189 188 190 192 193 191 189 188 189 191 192 198 206 215 223 231 238 245 250 255 259 264 271 278 285 290 292 289 280 267 258 260 269 275 279 274 265 259 255 256 278 337 355 353 345 333 324 318 310 299 298 295 292 290 287 287 287 287 291 294 294 293 293 292 292 292 292 294 294 295 296 293 291
163 163 163 166 169 173 175 178 178 179 182 186 190 191 190 189 189 190 188 185 186 190 194 200 208 218 227 233 238 243 246 250 252 255 261 275 284 288 293 294 288 276 256 244 250 267 277 281 278 273 268 267 275 324 351 346 336 326 318 315 312 306 296 289 283 279 277 277 277 275 272 273 278 284 288 289 289 288 288 289 289 290 292 290 287 286
166 166 165 169 172 175 178 181 182 184 185 187 190 192 189 185 185 186 186 183 185 189 193 201 213 225 235 239 241 242 242 244 246 249 255 284 291 290 294 294 285 266 246 238 246 266 278 284 286 284 282 279 297 344 341 326 317 313 312 312 308 305 300 293 283 273 268 268 270 270 268 268 270 273 277 281 284 284 284 284 284 285 285 285 285 284
169 170 171 172 174 177 181 183 185 187 189 189 189 189 186 184 183 184 185 186 188 190 194 199 204 214 222 229 236 238 234 234 241 250 261 292 297 291 295 293 281 264 250 247 257 273 284 290 293 290 286 281 305 338 331 319 314 312 312 307 304 304 306 305 299 287 276 270 268 267 266 265 264 262 263 273 278 279 279 280 280 280 281 280 280 281
172 174 175 175 177 179 182 184 187 190 192 190 188 187 187 187 187 188 190 193 194 195 200 206 210 209 197 191 215 229 230 231 244 262 277 295 291 286 296 300 290 276 271 271 276 281 291 298 300 299 292 279 291 324 329 322 318 314 306 300 298 301 312 325 329 325 318 307 293 282 275 271 269 266 265 267 270 274 276 278 278 278 278 278 278 278
177 180 181 180 181 183 184 186 189 191 192 190 188 187 185 188 192 195 199 203 205 206 208 212 217 220 216 200 213 229 239 245 260 278 293 302 266 255 298 330 326 314 310 297 292 294 300 303 303 302 296 283 283 328 335 328 320 309 298 297 297 298 310 342 355 355 350 339 327 311 297 287 280 275 272 270 268 269 273 275 275 276 276 276 277 277
182 185 187 187 187 186 186 189 193 195 194 193 192 190 187 190 194 199 204 209 214 218 222 220 222 227 229 221 223 238 252 259 270 283 296 292 235 218 233 4 4 360 351 326 313 312 310 307 304 299 296 282 288 21 353 328 305 296 297 299 298 294 293 335 16 7 357 346 338 326 315 304 295 288 283 279 274 271 273 273 274 274 274 274 275 277
189 189 191 194 194 191 189 192 194 195 195 196 195 193 192 194 197 202 208 213 217 222 228 225 224 229 234 219 214 237 259 264 273 282 289 274 221 204 226 335 7 12 13 360 340 327 317 308 300 295 288 243 126 56 343 307 304 313 328 334 335 337 350 360 360 353 346 338 332 327 319 306 298 293 289 285 282 278 275 275 275 274 273 273 273 272
196 193 192 196 199 199 197 196 193 192 194 198 199 198 199 202 203 207 213 216 218 220 223 221 225 233 239 230 229 241 257 261 266 272 275 261 215 200 234 293 339 351 1 360 349 334 319 304 294 283 264 178 135 105 6 346 9 19 17 13 12 12 11 5 354 341 327 318 311 306 301 287 278 274 271 271 275 275 270 270 270 271 271 270 268 266
199 194 190 190 194 199 201 197 192 189 191 196 201 207 211 213 215 216 218 219 219 220 222 226 235 244 248 245 242 242 246 248 251 253 252 247 214 200 241 283 313 330 347 353 349 337 320 297 280 258 193 149 127 105 73 45 37 30 21 11 5 1 358 353 347 338 328 317 309 302 298 293 288 282 275 270 267 265 262 261 261 263 267 267 266 265
191 189 185 184 185 190 194 193 190 188 189 192 197 204 211 214 215 215 217 221 224 228 232 237 242 245 246 241 239 237 233 232 234 237 236 235 219 214 245 282 304 324 343 350 347 336 316 277 245 198 163 149 132 107 85 59 37 23 8 360 353 347 345 341 341 339 335 327 319 312 306 299 295 291 287 282 278 273 268 260 260 263 263 266 268 269
181 181 180 179 180 182 187 189 190 191 192 195 200 206 210 211 212 214 218 223 228 232 235 236 236 235 234 222 222 229 226 219 222 228 231 228 225 232 253 285 304 322 341 351 347 327 294 232 200 179 168 162 154 140 124 108 73 345 336 345 347 345 342 340 340 343 340 337 332 326 320 311 304 298 294 290 286 282 277 270 264 261 259 263 265 268
176 177 178 177 177 178 181 185 189 192 196 200 204 208 211 213 217 221 225 226 228 229 229 227 228 232 232 217 210 212 213 211 215 224 230 228 230 241 256 283 303 321 339 351 348 313 221 194 185 178 176 175 174 171 168 197 272 279 284 286 303 326 339 343 344 344 342 341 339 337 332 326 319 312 305 298 292 288 284 280 274 269 264 263 262 262
165 167 167 168 170 172 176 181 185 190 197 203 208 214 219 223 227 227 225 225 227 227 225 222 226 232 234 229 219 208 203 206 212 223 233 234 231 236 252 276 298 320 337 348 347 227 191 186 183 182 182 183 186 197 239 293 304 303 299 290 282 281 317 342 344 341 339 338 336 336 336 334 329 324 317 310 303 297 291 287 283 280 276 272 265 261
136 138 140 143 147 153 159 167 175 184 196 208 220 230 235 236 231 224 221 226 228 228 226 223 224 224 222 224 222 216 213 218 218 221 233 232 229 231 245 271 296 318 336 345 338 198 193 189 189 189 189 190 195 222 288 305 308 305 301 290 275 253 232 298 327 321 321 325 324 325 328 329 327 324 321 315 311 305 300 294 289 283 278 273 267 264
132 134 137 140 145 151 157 161 164 170 177 188 216 239 248 245 236 227 225 231 230 227 226 226 225 222 219 229 234 235 236 233 225 219 225 224 223 230 245 267 291 316 336 344 313 195 195 198 200 200 199 200 207 252 298 304 302 296 287 273 253 236 224 228 244 259 277 291 301 309 313 316 317 317 315 313 310 307 302 299 294 287 279 275 273 273
152 155 160 163 168 172 176 179 182 182 181 180 194 219 242 246 243 239 239 240 237 232 230 229 227 224 221 226 241 251 246 232 219 213 216 217 217 227 245 261 283 310 338 347 328 202 199 207 211 213 213 214 230 275 300 300 291 279 264 251 240 236 235 242 250 258 268 278 288 296 300 303 304 304 305 307 307 306 303 303 301 296 289 285 281 280
178 182 185 188 192 196 199 204 207 207 203 200 205 217 234 243 247 248 249 249 246 242 238 234 229 223 218 210 211 239 240 214 204 203 209 212 216 227 240 251 271 297 326 348 353 306 219 220 221 222 225 233 256 287 300 292 277 260 248 239 236 240 247 255 263 270 276 282 288 292 294 294 294 293 293 295 299 302 306 307 306 303 297 294 292 290
198 200 201 205 208 211 213 216 217 217 216 215 219 226 235 242 247 250 252 253 252 249 245 240 234 227 222 216 212 213 212 191 192 199 206 209 215 225 238 244 256 278 303 322 333 317 254 257 239 232 239 253 276 295 299 282 261 248 245 241 242 249 260 267 273 279 282 286 289 291 291 288 286 284 282 283 286 295 303 307 308 306 303 302 301 302
205 206 208 212 214 216 217 217 217 218 221 226 232 238 242 244 246 249 254 257 257 254 249 243 237 232 228 225 225 225 220 203 201 207 214 215 217 225 235 240 246 259 280 294 299 289 267 272 266 259 266 280 297 308 299 267 250 249 253 256 258 263 269 274 279 282 285 287 288 289 287 284 281 278 276 275 276 283 295 305 309 308 305 305 306 307
208 209 210 213 216 219 221 221 224 229 236 246 253 254 251 247 246 251 261 268 267 261 253 246 241 236 232 230 231 232 234 228 222 223 229 226 223 226 234 239 242 249 261 271 281 283 275 269 272 281 290 302 315 324 307 257 250 259 270 274 277 278 277 280 282 283 284 286 286 285 282 278 275 273 272 272 270 270 280 297 304 302 297 301 304 305
215 215 216 219 222 226 230 236 244 252 259 264 266 263 256 250 250 258 271 278 277 270 259 251 245 241 238 235 234 236 239 237 234 233 235 232 230 233 240 243 247 251 253 257 265 270 267 269 277 288 298 308 318 327 317 275 270 278 283 283 283 283 283 285 285 285 285 284 281 279 276 273 270 269 269 269 267 265 269 281 288 288 286 290 295 299
221 221 221 224 227 232 238 245 253 260 266 267 265 260 253 250 252 261 271 278 278 272 262 252 245 242 241 241 241 241 241 240 238 237 236 236 237 240 245 250 256 259 257 259 262 267 270 276 284 291 298 302 307 312 314 306 298 287 280 271 264 265 278 287 290 291 290 288 283 278 276 274 272 272 272 270 268 266 266 269 272 274 275 275 279 285
226 226 226 228 231 236 242 249 255 261 264 263 259 254 249 248 253 261 267 270 270 266 258 249 243 240 240 242 243 242 240 239 239 240 240 242 246 249 253 258 263 265 264 263 266 271 277 282 288 291 291 287 281 285 301 310 307 294 273 241 223 214 251 286 291 294 296 298 297 294 293 292 289 285 282 277 274 271 269 268 268 269 270 269 269 270
231 230 230 231 235 240 246 252 258 262 263 261 255 249 246 248 253 258 261 262 260 257 252 246 241 240 240 242 243 242 239 239 242 244 246 250 254 257 260 263 266 268 269 268 269 271 273 277 283 287 282 276 278 289 300 307 312 317 317 191 186 188 206 288 290 291 297 302 307 311 313 311 308 302 297 291 285 280 276 273 272 271 270 270 269 269
238 235 234 235 238 244 250 257 261 263 260 255 249 245 244 247 250 253 254 254 253 250 247 244 241 240 242 244 245 245 243 244 246 248 252 255 258 261 264 265 266 268 270 270 269 267 265 263 263 266 274 282 289 296 302 306 312 320 324 245 161 161 212 240 261 281 298 313 319 321 322 321 318 316 313 309 303 300 297 292 287 283 280 277 275 272
247 245 243 243 245 250 256 261 263 260 255 248 244 242 243 246 249 251 252 252 251 250 248 247 246 247 248 250 252 252 251 251 252 254 256 259 261 263 264 265 266 267 268 268 267 265 261 258 257 259 264 274 287 293 297 300 309 320 325 325 336 1 102 189 217 279 314 324 326 325 323 323 323 323 325 325 326 325 324 321 319 314 308 303 299 294
256 255 255 254 255 258 260 261 259 255 250 246 244 244 245 249 251 252 251 251 251 250 251 252 254 256 259 260 261 262 263 263 263 262 262 261 262 262 262 262 263 263 263 263 263 262 261 258 258 258 260 267 277 285 289 293 300 309 312 312 317 323 327 210 252 320 326 328 327 325 323 323 323 324 328 330 334 335 333 332 332 330 327 324 319 316
260 261 262 262 261 260 259 258 256 253 250 248 248 249 250 253 255 256 255 253 252 252 252 254 255 258 262 264 266 267 269 271 271 269 267 264 262 260 260 259 259 258 257 257 257 258 257 257 257 258 259 264 270 277 282 287 290 292 291 298 306 311 304 273 319 323 323 326 326 324 322 323 325 327 328 330 333 335 333 332 331 331 330 328 326 321
261 263 264 261 258 256 256 256 255 254 252 251 251 252 254 256 258 260 260 258 257 256 257 258 260 262 264 266 267 268 269 270 270 269 267 264 260 258 256 254 253 252 251 251 252 252 253 254 254 256 261 265 267 268 274 281 283 283 282 291 302 307 306 308 311 312 315 321 325 327 326 325 324 323 323 325 327 329 329 329 328 327 326 324 321 318
258 258 256 254 253 253 254 255 255 255 253 252 251 252 254 256 258 260 260 259 259 259 259 261 263 265 266 268 270 271 270 268 265 264 263 261 258 255 252 249 247 246 245 246 248 250 252 254 256 259 264 266 263 263 267 272 277 279 281 286 290 288 285 295 307 315 319 324 325 327 327 324 320 317 315 316 319 323 325 326 325 324 322 319 316 313
251 251 251 250 251 251 252 253 254 254 253 253 251 250 251 254 256 258 258 258 259 258 258 260 261 261 263 267 271 274 276 273 266 259 257 256 255 252 249 245 242 241 242 244 248 252 255 258 262 268 273 270 263 260 261 266 271 277 281 286 289 289 291 296 303 309 313 318 321 323 325 321 316 312 311 313 316 319 321 323 323 322 320 317 313 310
248 250 251 252 252 252 252 253 253 253 253 253 252 252 252 254 256 258 259 259 258 257 257 258 257 256 257 262 268 273 277 277 273 262 252 250 249 247 244 241 239 238 240 245 251 256 260 265 268 272 273 269 264 261 260 262 267 274 281 287 291 293 294 295 299 303 308 312 315 318 320 316 312 309 310 312 315 316 317 318 319 318 317 314 311 307
252 256 258 259 258 257 255 254 254 253 254 254 254 255 256 257 259 260 260 259 258 256 255 255 254 254 255 258 262 267 272 277 279 276 262 251 243 239 236 235 235 236 239 244 250 256 261 265 267 266 265 262 260 260 262 263 266 271 278 285 290 291 291 292 295 301 307 310 314 317 317 312 309 307 308 309 310 310 311 312 314 314 312 309 306 304
258 263 267 268 266 264 261 257 256 255 255 256 256 257 258 260 261 261 260 259 257 254 252 252 252 253 255 258 261 264 269 275 280 283 279 266 250 237 229 228 231 236 240 245 249 253 258 262 262 261 259 258 257 259 263 266 267 270 275 281 283 284 285 290 296 303 307 309 313 315 313 309 307 307 308 307 305 304 305 307 308 307 305 303 301 300
261 265 268 270 271 269 268 264 261 259 259 259 259 260 260 261 261 261 259 257 255 252 251 251 252 253 254 257 259 262 267 271 276 280 282 277 263 245 233 229 230 235 242 249 253 258 263 265 264 262 260 259 257 258 262 266 269 271 274 275 276 278 282 287 295 303 308 310 311 311 309 306 305 306 307 304 301 301 302 303 303 301 299 297 296 294
262 266 269 271 271 272 273 273 270 268 266 267 267 267 266 263 261 259 257 255 252 250 250 251 253 255 256 258 260 263 265 269 273 277 280 280 274 259 244 236 233 237 243 250 256 261 267 269 268 265 262 259 257 257 258 263 267 271 272 273 274 277 281 287 295 303 307 310 310 308 305 302 301 302 303 301 299 299 299 299 298 297 295 294 291 289
264 267 269 270 272 274 276 277 277 276 276 277 277 277 274 270 265 261 257 255 253 251 251 252 254 256 258 260 262 264 266 268 271 274 277 280 277 266 250 240 236 237 239 243 249 256 262 269 273 272 269 263 258 256 255 257 261 265 267 271 274 278 281 287 294 302 306 306 304 301 299 297 296 297 297 297 296 296 297 296 296 295 294 292 290 287
Height
826 826 827 828 829 829 830 831 831 832 832 832 833 833 833 834 834 834 834 835 835 836 836 836 836 837 837 837 837 837 837 837 838 838 838 838 838 838 838 838 838 838 838 838 838 838 838 838 838 838 838 838 838 838 838 838 838 838 838 838 838 839 839 839 839 839 839 839 839 839 838 838 838 838 838 838 838 839 839 839 839 839 838 838 838 838
825 826 827 827 828 829 830 830 831 831 831 832 832 833 833 833 833 834 834 834 835 835 836 836 836 836 836 837 837 837 837 837 838 838 838 838 838 838 838 838 839 839 839 839 838 838 838 838 838 838 838 838 838 838 838 838 837 837 837 837 838 838 838 838 838 838 838 838 838 837 837 837 838 838 838 838 838 838 838 838 838 838 838 838 838 838
824 825 826 827 828 829 829 830 830 831 831 831 831 832 832 833 833 834 834 834 835 835 836 836 836 836 836 837 837 837 837 838 838 838 838 838 838 838 838 839 839 839 839 839 839 838 838 838 838 838 838 838 837 837 837 837 837 837 837 837 837 837 837 837 837 837 837 837 837 837 837 837 837 837 837 837 838 838 838 838 838 837 837 837 837 838
823 824 826 826 828 828 829 829 830 830 830 831 831 832 832 833 833 833 834 834 835 835 836 836 836 836 836 837 837 837 838 838 838 838 838 838 838 838 838 839 839 839 839 838 838 838 838 838 838 838 837 837 837 837 837 836 836 836 836 836 836 836 836 836 836 836 836 836 836 836 836 836 836 837 837 837 837 837 837 837 837 837 837 837 837 837
823 824 825 826 827 828 828 829 829 829 830 830 831 831 832 832 833 833 834 834 835 835 836 836 836 836 836 837 837 837 837 837 837 838 838 838 838 838 838 838 838 838 838 838 838 838 838 838 837 837 837 837 837 836 836 836 836 836 836 835 835 835 835 836 836 836 836 836 836 836 836 836 836 836 836 836 836 836 836 836 836 836 837 837 837 837
823 824 825 826 826 827 828 828 829 829 829 830 831 831 832 832 832 833 834 834 835 835 835 836 836 836 836 836 836 837 837 837 837 837 837 838 838 838 838 838 838 838 838 838 838 838 837 837 837 837 836 836 836 836 836 835 835 835 835 835 835 835 835 835 835 835 835 835 835 835 836 836 836 836 836 836 836 836 836 836 836 836 836 836 836 836
822 823 824 825 826 826 827 828 828 828 829 830 830 831 831 832 832 833 833 834 834 835 835 835 836 836 836 836 836 836 837 837 837 837 837 837 837 837 837 837 837 837 837 837 837 837 837 836 836 836 836 836 836 835 835 835 834 834 834 834 834 834 834 834 834 834 834 835 835 835 835 835 835 835 835 835 835 835 835 835 836 836 836 836 836 836
821 822 823 824 825 826 826 827 827 828 829 829 830 831 831 832 832 833 833 834 834 835 835 835 835 836 836 836 836 836 836 836 836 836 837 837 837 837 837 837 837 837 837 837 837 836 836 836 836 836 836 835 835 834 834 834 833 833 833 833 833 833 833 833 833 834 834 834 834 834 834 834 835 835 835 835 835 835 835 835 835 835 835 835 835 835
819 821 822 823 824 825 826 826 827 828 828 829 829 830 831 831 832 832 833 834 834 834 835 835 835 835 835 836 836 836 836 836 836 836 836 836 836 836 836 836 836 836 836 836 836 836 836 835 835 835 835 835 834 834 833 833 833 833 833 833 832 833 833 833 833 833 833 833 833 833 834 834 834 834 834 834 834 834 834 834 834 834 835 835 835 835
818 819 821 822 823 824 825 826 826 827 828 829 829 830 830 831 831 832 832 833 833 834 834 834 835 835 835 835 835 836 836 836 836 836 836 836 836 836 836 836 836 836 836 836 835 835 835 835 835 835 834 834 834 833 833 833 833 832 832 832 832 832 832 832 832 832 832 832 833 833 833 833 833 833 834 834 834 834 834 834 834 834 834 834 834 834
818 819 820 821 822 823 824 825 826 826 827 828 829 830 830 831 831 831 832 832 833 833 834 834 834 835 835 835 835 835 835 835 835 836 836 836 835 835 835 835 835 835 835 835 834 834 834 834 834 834 834 833 833 833 833 832 832 832 832 832 832 832 832 832 832 832 832 832 832 832 832 832 833 833 833 833 833 833 833 833 833 833 833 834 834 834
818 819 820 821 822 823 824 824 825 826 827 828 829 829 830 830 831 831 831 831 832 833 833 834 834 834 834 835 835 835 835 835 835 835 835 835 835 835 835 835 834 834 834 834 834 834 833 833 833 833 833 833 833 833 832 832 832 832 832 832 832 832 832 832 832 832 832 832 832 832 832 832 832 832 833 833 833 833 833 833 833 833 833 833 833 833
817 818 820 821 821 822 823 824 825 826 826 827 828 828 829 829 830 830 831 831 832 832 833 833 833 834 834 834 834 834 834 834 835 835 835 834 834 834 834 834 834 834 833 833 833 833 833 833 833 832 832 832 832 832 832 832 832 832 832 832 831 831 831 831 831 831 831 831 831 832 832 832 832 832 832 832 832 832 832 832 833 833 833 833 833 833
817 818 819 820 821 822 822 823 824 825 826 826 827 827 827 828 829 830 830 831 831 832 832 833 833 833 833 834 834 834 834 834 834 834 834 834 834 834 833 833 833 833 833 833 833 832 832 832 832 832 832 832 832 832 831 831 831 831 831 831 831 831 831 831 831 831 831 831 831 831 831 831 832 832 832 832 832 832 832 832 832 832 832 832 832 833
816 817 818 819 820 821 822 822 823 824 825 825 826 826 827 827 828 829 830 830 831 831 832 832 833 833 833 833 833 833 833 833 833 834 834 833 833 833 833 833 832 832 832 832 832 832 832 832 832 832 832 831 831 831 831 831 831 831 831 831 831 831 830 830 830 830 830 831 831 831 831 831 831 831 831 831 831 831 831 832 832 832 832 832 832 832
815 816 817 818 819 820 821 822 823 823 824 825 825 826 826 827 828 828 829 830 830 831 831 832 832 832 832 832 832 832 832 833 833 833 833 833 833 832 832 832 832 832 832 832 832 832 832 831 831 831 831 831 831 831 831 831 831 831 831 831 831 830 830 830 830 830 830 830 830 830 830 831 831 831 831 831 831 831 831 831 831 831 831 831 831 832
815 816 816 817 818 819 820 821 822 823 824 824 825 826 826 827 827 828 829 829 830 830 831 831 832 832 832 831 831 832 832 832 832 832 833 833 832 832 832 832 832 832 832 832 831 831 831 831 831 831 831 831 831 831 831 831 831 831 830 830 830 830 829 829 829 829 829 829 829 830 830 830 830 830 831 831 831 831 831 831 831 831 831 831 831 831
815 816 816 817 818 819 820 821 821 822 823 823 824 825 826 826 827 827 828 829 829 830 830 831 831 831 831 831 831 831 831 832 832 832 832 832 832 831 831 831 831 831 831 831 831 831 831 831 831 830 830 830 830 830 830 830 830 830 830 829 829 829 829 829 829 829 829 829 829 829 829 829 830 830 830 830 830 831 831 831 831 831 831 831 831 831
814 815 816 816 817 818 819 820 821 821 822 823 824 824 825 826 826 827 828 828 828 829 829 830 830 830 830 830 830 831 831 831 831 831 831 831 831 831 831 831 831 831 831 831 831 831 831 830 830 830 830 830 830 830 830 830 830 830 829 829 829 828 828 828 828 829 829 829 829 829 829 829 829 829 829 829 830 830 830 830 830 830 830 830 831 831
814 815 816 816 817 818 819 819 820 821 821 822 823 824 825 825 826 826 827 827 828 828 829 829 829 829 830 830 830 830 830 831 831 831 831 831 831 831 831 831 831 831 831 831 831 830 830 830 830 829 829 829 829 829 830 830 829 829 829 828 828 828 828 828 828 828 828 829 829 829 829 829 829 829 829 829 829 829 829 830 830 830 830 830 830 830
814 815 816 816 817 817 818 819 820 821 821 822 823 823 824 825 825 826 826 827 827 827 828 828 829 829 829 830 830 830 830 830 830 830 830 831 831 831 831 831 831 831 831 830 830 830 830 829 829 829 829 829 829 829 829 829 829 828 828 828 827 827 827 827 828 828 828 828 828 828 828 828 828 828 828 828 828 829 829 829 829 829 829 829 830 830
814 815 816 816 817 817 818 819 820 821 821 822 822 823 823 824 824 825 826 826 826 827 827 828 828 828 829 829 829 829 829 829 829 830 830 830 830 830 830 830 830 830 830 830 830 829 829 829 828 828 828 828 829 829 829 829 828 828 828 828 827 827 827 827 827 827 827 827 827 827 827 827 827 828 828 828 828 828 828 828 828 828 829 829 829 829
814 815 816 816 817 817 818 819 820 820 821 821 822 822 823 823 824 824 825 826 826 826 827 827 827 827 828 828 828 828 829 829 829 829 829 829 830 830 830 830 830 830 830 830 829 829 828 828 828 828 828 828 828 829 829 829 828 828 828 828 828 828 827 827 827 827 827 827 827 827 827 827 827 827 827 827 827 827 827 827 827 828 828 828 828 828
815 815 816 816 817 817 818 819 819 820 821 821 822 822 823 823 824 824 825 825 826 826 826 826 827 827 827 827 828 828 828 828 828 828 829 829 829 829 829 829 829 829 829 829 829 828 828 827 827 827 828 828 828 829 829 828 828 828 828 828 828 827 827 827 827 827 827 827 826 826 826 826 826 826 826 826 826 826 826 827 827 827 827 827 827 827
814 815 816 816 817 817 818 819 819 820 820 821 821 822 822 823 823 824 824 825 825 825 826 826 826 826 826 827 827 827 827 827 828 828 828 828 829 829 829 829 829 829 829 828 828 828 827 827 827 827 827 828 828 828 828 828 828 827 827 827 827 827 827 827 827 826 826 826 826 826 826 826 826 826 826 826 826 826 826 826 826 826 826 826 826 826
815 815 816 816 817 817 818 819 819 820 820 821 821 821 822 822 823 823 824 824 824 825 825 825 826 826 826 826 826 827 827 827 827 827 828 828 828 828 828 828 828 828 828 828 828 827 827 827 827 827 827 827 827 827 827 827 827 827 826 826 826 826 826 826 826 826 826 826 826 826 826 825 825 825 825 825 825 825 825 825 825 825 826 826 826 826
815 815 816 816 817 817 818 818 819 820 820 820 821 821 821 822 822 823 823 823 824 824 824 825 825 825 826 826 826 826 826 827 827 827 827 827 828 828 828 828 828 828 828 827 827 827 827 826 826 827 827 827 827 827 827 826 826 826 826 826 826 826 826 826 826 826 826 825 825 825 825 825 825 825 825 825 824 824 824 824 824 825 825 825 825 825
815 815 816 816 817 817 818 818 819 819 820 820 820 821 821 821 821 822 822 822 823 823 824 824 824 825 825 825 826 826 826 826 826 826 827 827 827 827 827 827 827 828 827 827 827 827 826 826 826 826 827 827 827 827 826 826 826 826 825 825 825 825 825 825 825 825 825 825 824 824 824 824 824 824 824 824 824 824 824 824 824 824 824 824 823 823
815 816 816 817 817 817 818 818 819 819 820 820 820 820 820 821 821 821 821 822 822 822 823 823 824 824 824 825 825 825 825 826 826 826 826 826 827 827 827 827 827 827 827 827 827 826 826 826 826 826 826 826 826 826 826 826 825 825 825 825 824 824 824 824 824 824 824 824 824 823 823 823 823 823 823 823 823 823 823 823 823 823 822 822 822 822
815 816 816 816 816 817 817 818 818 819 819 820 820 820 820 820 820 821 821 821 821 822 822 822 823 823 824 824 825 825 824 824 825 825 826 826 826 826 826 826 827 827 827 827 826 826 826 826 826 826 826 826 826 826 826 825 825 824 824 824 824 823 823 823 823 823 823 823 823 822 822 822 822 822 822 822 822 822 822 822 822 822 821 821 821 821
815 815 815 816 816 816 817 817 818 818 819 819 819 819 819 819 820 820 820 820 821 821 821 821 822 822 823 824 824 824 823 823 824 824 825 825 826 826 826 826 826 826 826 826 826 826 826 826 826 826 826 826 826 826 825 824 824 823 823 823 823 823 823 822 822 822 822 822 822 822 821 821 821 821 821 821 821 821 821 821 821 821 821 820 820 820
814 815 815 816 816 816 816 817 817 818 818 818 819 819 819 819 819 819 820 820 820 820 821 821 821 822 822 822 823 823 823 823 823 824 824 825 825 825 826 826 826 826 826 826 826 826 826 826 825 825 825 825 825 825 824 823 823 823 822 822 822 822 822 822 821 821 821 821 821 821 821 821 820 820 820 820 820 820 821 821 821 821 820 820 819 819
814 814 815 815 815 816 816 816 817 817 818 818 818 818 818 818 819 819 819 819 819 820 820 820 821 821 821 822 822 822 822 823 823 823 824 824 824 825 825 825 825 825 825 826 826 826 826 825 825 825 825 824 824 824 823 822 822 822 822 822 821 821 821 821 821 821 820 820 820 820 820 820 820 819 819 819 819 819 820 820 820 820 820 819 819 819
814 814 814 815 815 815 816 816 816 817 817 817 817 818 818 818 818 818 818 819 819 819 819 820 820 820 821 821 821 822 822 823 823 823 823 824 824 824 824 824 825 825 825 825 825 825 825 825 825 824 823 823 823 822 822 822 821 821 821 821 821 821 820 820 820 820 820 819 819 819 819 819 819 819 819 819 819 819 819 819 819 819 819 819 818 818
813 813 814 814 814 815 815 816 816 816 816 817 817 817 817 817 818 818 818 818 818 818 819 819 819 820 820 821 821 821 822 822 822 822 823 823 823 823 824 824 824 824 824 824 824 824 824 824 824 823 823 822 821 821 821 821 821 821 820 820 820 820 819 819 819 819 819 819 819 819 819 818 818 818 818 818 818 818 818 818 818 818 818 818 818 817
812 813 813 813 814 814 815 815 815 816 816 816 816 816 817 817 817 817 818 818 818 818 818 818 819 819 819 820 820 821 822 822 822 822 822 822 823 823 823 823 823 823 824 824 824 824 824 823 823 823 822 822 821 821 820 820 820 820 820 819 819 819 819 818 818 818 818 818 818 818 818 818 818 817 817 817 817 817 817 817 817 816 816 816 816 816
812 812 813 813 813 814 814 815 815 815 815 816 816 816 816 816 816 817 817 817 817 818 818 818 818 818 819 819 820 820 821 821 821 821 821 822 822 822 822 822 822 823 823 823 823 823 823 823 822 822 822 821 821 820 819 819 819 819 819 819 819 818 818 818 818 818 818 818 818 817 817 817 817 817 817 817 816 816 816 816 816 816 816 816 815 815
811 812 812 813 813 813 814 814 814 815 815 815 815 815 816 816 816 816 816 817 817 817 817 817 818 818 818 819 819 820 820 820 821 821 821 821 821 821 821 822 822 822 822 822 822 822 822 822 822 821 821 820 820 819 819 819 818 818 818 818 818 818 818 817 817 817 817 817 817 817 817 817 816 816 816 816 816 816 815 815 815 815 815 815 814 814
811 811 811 812 812 813 813 813 813 814 814 814 814 815 815 815 815 816 816 816 816 816 817 817 817 817 818 818 819 819 819 820 820 820 820 820 820 821 821 821 821 821 821 821 821 821 821 821 821 821 820 819 819 818 818 818 818 817 817 817 817 817 817 817 817 817 816 816 816 816 816 816 816 816 816 815 815 815 815 814 814 814 814 814 813 813
810 811 811 811 812 812 812 813 813 813 813 813 814 814 814 814 815 815 815 816 816 816 816 816 817 817 817 818 818 818 818 819 819 819 819 819 819 819 819 820 820 820 820 820 820 820 820 820 820 820 820 819 818 818 817 817 817 817 817 816 816 816 816 816 816 816 816 816 816 816 816 816 815 815 815 815 814 814 814 814 813 813 813 812 812 812
809 810 810 811 811 811 812 812 812 812 812 813 813 813 814 814 814 814 815 815 815 815 816 816 816 816 816 817 817 817 817 818 818 818 818 818 818 818 818 818 819 819 819 819 819 819 819 819 819 819 819 819 818 817 817 816 816 817 816 816 816 816 816 816 816 816 816 815 815 815 815 815 815 814 814 814 814 814 813 813 813 812 812 812 811 811
809 809 810 810 811 811 811 811 811 811 812 812 812 813 813 813 814 814 814 814 814 815 815 815 815 816 816 816 816 816 816 816 817 817 817 817 817 817 817 817 817 818 818 818 818 818 818 818 818 818 818 818 817 817 816 816 816 816 816 816 815 815 815 815 815 815 815 815 815 814 814 814 814 813 813 813 813 813 813 812 812 812 811 811 811 810
808 808 809 809 810 810 810 810 810 811 811 811 812 812 812 813 813 813 813 814 814 814 814 815 815 815 815 815 815 815 816 816 816 816 816 816 816 816 816 816 816 816 817 817 817 817 817 817 817 817 817 817 817 816 816 815 815 815 815 815 815 815 814 814 814 814 814 814 814 814 813 813 813 812 812 812 812 812 812 811 811 811 811 810 810 810
807 807 808 808 808 809 809 809 810 810 810 811 811 811 812 812 812 812 813 813 813 813 814 814 814 814 814 814 814 814 814 815 815 815 815 815 815 815 815 815 816 816 816 816 816 816 816 816 816 816 816 816 816 816 815 814 814 814 814 814 815 815 814 813 813 813 813 813 813 813 813 812 812 811 811 811 811 811 811 811 810 810 810 809 809 809
806 807 807 807 807 808 808 808 809 809 809 810 810 811 811 811 811 811 812 812 812 812 813 813 813 813 813 812 812 813 813 813 813 813 814 814 814 814 814 814 815 815 815 815 815 815 815 815 815 815 815 815 815 815 814 813 813 813 813 813 813 813 813 812 812 812 812 812 812 812 812 811 811 811 810 810 810 810 810 809 809 809 808 808 808 807
806 806 806 806 806 807 807 807 808 808 809 809 809 810 810 810 811 811 811 811 811 811 811 812 812 812 812 811 811 812 812 812 812 813 813 813 813 813 813 813 814 814 814 814 814 814 814 815 815 815 815 815 814 813 813 813 812 812 811 812 812 812 812 811 811 811 811 811 811 811 811 811 810 810 809 809 808 808 808 808 808 807 807 807 807 806
805 805 806 806 806 806 806 806 807 807 808 808 808 809 809 809 810 810 810 810 810 810 810 811 811 811 810 810 811 811 811 811 811 811 812 812 812 812 812 812 813 813 813 813 813 814 814 814 814 814 814 814 813 812 811 811 811 811 811 811 811 811 810 810 810 811 811 811 810 810 810 810 809 809 808 807 807 806 806 806 806 806 806 806 805 805
805 805 805 805 805 805 806 806 806 806 806 807 807 808 808 808 808 808 808 808 809 809 809 809 809 809 809 809 809 810 810 810 810 810 811 811 811 811 811 811 812 812 812 812 812 813 813 813 813 813 813 813 812 811 810 810 810 810 810 810 810 809 809 809 809 809 809 809 809 809 809 809 808 808 807 806 806 805 805 805 805 805 805 805 804 804
804 804 804 804 804 805 805 805 805 806 806 806 806 806 807 807 807 807 807 807 807 807 808 808 808 808 808 808 808 808 809 809 809 809 810 810 810 810 811 811 811 811 811 811 811 812 812 812 811 811 811 811 811 810 809 809 809 809 809 809 808 808 808 807 807 808 808 808 808 808 808 808 807 807 806 806 804 804 803 803 804 804 804 804 803 803
803 803 803 803 803 804 804 804 804 805 805 805 805 805 806 806 806 806 806 806 806 806 806 806 807 807 807 807 807 807 808 808 808 808 809 809 809 809 810 810 810 810 811 811 811 811 811 811 810 809 809 809 809 809 808 808 807 808 808 807 807 807 807 806 806 807 807 807 807 807 807 807 806 806 806 805 804 803 802 802 802 802 802 802 802 802
802 802 802 802 802 803 803 803 803 804 804 804 804 804 804 805 805 805 805 805 805 805 805 806 806 806 806 806 806 806 807 807 807 807 808 808 808 808 809 809 809 810 810 810 810 810 810 810 809 808 807 807 807 807 807 807 807 807 806 806 806 806 806 806 806 806 806 806 806 806 806 806 806 806 805 805 804 802 801 800 800 801 801 801 801 800